sat.trackr.live / text

‹ back to catalog

FLOCK 4H-10

NORAD 66713 · 2025-276AZ

PAYLOAD ACTIVE UNKNOWN

§ Identity

Operator
Country
US
Launch date
2025-11-28
Launch site
AFWTR
Launch vehicle
Mass (kg)
RCS (m²)

Purposes: earth_obs

External: N2YO · Heavens-Above · Gunter

§ Orbital elements

Epoch: 2026-09-19T00:07:07.835520Z

Period
94.68 min
Inclination
97.4111°
Eccentricity
0.0005339
Mean motion
15.20856968 rev/d
Perigee alt
499.6 km
Apogee alt
506.9 km
Semi-major
6,881.4 km
B*
2.2567e-4
RAAN
333.9507°
Arg perigee
50.9819°
Mean anomaly
309.1891°
Rev number
4,467

§ Raw data

FLOCK 4H-101 66713U 25276AZ  26262.00495180  .00004916  00000+0  22567-3 0  99942 66713  97.4111 333.9507 0005339  50.9819 309.1891 15.20856968 44672

JSON: /api/v1/satellites/66713 · /tle

For live sub-satellite position, see the globe view (requires WebGL).

§ Visibility from observer

Set your observer location to see the next 7 days of passes ≥ 10°. The values pass through the URL so the page stays shareable.

No JS? Fill the form by hand. The geolocation button needs JavaScript.